Time,TemperatureF,DewpointF,PressureIn,WindDirection,WindDirectionDegrees,WindSpeedMPH,WindSpeedGustMPH,Humidity,HourlyPrecipIn,Conditions,Clouds,dailyrainin,SoftwareType,DateUTC
2013-07-04 00:01:00,70.9,69.7,29.58,NNE,22,3.0,5.0,96,0.00,,,0.00,Rainwise IP-100,2013-07-04 04:01:00,
2013-07-04 00:06:00,70.6,69.3,29.58,NNE,22,0.0,4.0,96,0.00,,,0.00,Rainwise IP-100,2013-07-04 04:06:00,
2013-07-04 00:11:00,70.2,68.5,29.58,NNE,22,0.0,0.0,95,0.00,,,0.00,Rainwise IP-100,2013-07-04 04:11:00,
2013-07-04 00:16:00,70.0,69.0,29.58,West,270,1.0,3.0,96,0.00,,,0.00,Rainwise IP-100,2013-07-04 04:16:00,
2013-07-04 00:21:00,69.9,69.0,29.58,West,270,0.0,2.0,96,0.00,,,0.00,Rainwise IP-100,2013-07-04 04:21:00,
2013-07-04 00:26:00,69.6,68.5,29.58,West,270,1.0,2.0,96,0.00,,,0.00,Rainwise IP-100,2013-07-04 04:26:00,
2013-07-04 00:31:00,69.3,68.0,29.58,West,270,0.0,2.0,96,0.00,,,0.00,Rainwise IP-100,2013-07-04 04:31:00,
2013-07-04 00:37:00,68.9,67.5,29.58,West,270,0.0,1.0,96,0.00,,,0.00,Rainwise IP-100,2013-07-04 04:37:00,
2013-07-04 00:42:00,68.6,67.0,29.58,West,270,0.0,0.0,95,0.00,,,0.00,Rainwise IP-100,2013-07-04 04:42:00,
2013-07-04 00:47:00,68.3,67.0,29.58,West,270,0.0,0.0,96,0.00,,,0.00,Rainwise IP-100,2013-07-04 04:47:00,
2013-07-04 00:52:00,68.4,67.0,29.58,West,270,0.0,0.0,96,0.00,,,0.00,Rainwise IP-100,2013-07-04 04:52:00,
2013-07-04 00:57:00,68.7,68.0,29.58,SW,225,2.0,5.0,99,0.00,,,0.00,Rainwise IP-100,2013-07-04 04:57:00,
2013-07-04 01:02:00,69.3,69.0,29.58,SW,225,0.0,4.0,98,0.00,,,0.00,Rainwise IP-100,2013-07-04 05:02:00,
2013-07-04 01:07:00,69.1,68.0,29.58,SW,225,0.0,1.0,97,0.00,,,0.00,Rainwise IP-100,2013-07-04 05:07:00,
2013-07-04 01:12:00,69.1,68.0,29.58,East,90,1.0,1.0,97,0.00,,,0.00,Rainwise IP-100,2013-07-04 05:12:00,
2013-07-04 01:18:00,69.6,69.3,29.58,East,90,0.0,3.0,98,0.00,,,0.00,Rainwise IP-100,2013-07-04 05:18:00,
2013-07-04 01:23:00,69.5,69.3,29.58,East,90,0.0,0.0,99,0.00,,,0.00,Rainwise IP-100,2013-07-04 05:23:00,
2013-07-04 01:28:00,69.3,69.0,29.58,SSW,202,0.0,2.0,98,0.00,,,0.00,Rainwise IP-100,2013-07-04 05:28:00,
2013-07-04 01:33:00,69.3,69.0,29.58,SW,225,0.0,3.0,98,0.00,,,0.00,Rainwise IP-100,2013-07-04 05:33:00,
2013-07-04 01:38:00,69.2,69.0,29.58,SW,225,0.0,0.0,98,0.00,,,0.00,Rainwise IP-100,2013-07-04 05:38:00,
2013-07-04 01:43:00,69.2,69.0,29.58,SW,225,0.0,0.0,98,0.00,,,0.00,Rainwise IP-100,2013-07-04 05:43:00,
2013-07-04 01:48:00,69.1,68.0,29.58,SW,225,0.0,0.0,97,0.00,,,0.00,Rainwise IP-100,2013-07-04 05:48:00,
2013-07-04 01:54:00,69.2,69.0,29.58,SW,225,0.0,0.0,99,0.00,,,0.00,Rainwise IP-100,2013-07-04 05:54:00,
2013-07-04 01:59:00,69.5,69.7,29.58,SW,225,0.0,0.0,100,0.00,,,0.00,Rainwise IP-100,2013-07-04 05:59:00,
2013-07-04 02:04:00,69.2,69.0,29.58,SW,225,0.0,0.0,99,0.00,,,0.00,Rainwise IP-100,2013-07-04 06:04:00,
2013-07-04 02:09:00,69.0,68.5,29.58,SW,225,0.0,0.0,99,0.00,,,0.00,Rainwise IP-100,2013-07-04 06:09:00,
2013-07-04 02:14:00,68.7,68.0,29.57,SW,225,0.0,0.0,98,0.00,,,0.00,Rainwise IP-100,2013-07-04 06:14:00,
2013-07-04 02:19:00,68.4,68.0,29.58,SW,225,0.0,0.0,98,0.00,,,0.00,Rainwise IP-100,2013-07-04 06:19:00,
2013-07-04 02:24:00,68.1,67.5,29.57,SW,225,0.0,0.0,98,0.00,,,0.00,Rainwise IP-100,2013-07-04 06:24:00,
2013-07-04 02:29:00,67.9,67.5,29.57,SW,225,0.0,2.0,98,0.00,,,0.00,Rainwise IP-100,2013-07-04 06:29:00,
2013-07-04 02:35:00,67.9,67.5,29.57,SW,225,0.0,0.0,98,0.00,,,0.00,Rainwise IP-100,2013-07-04 06:35:00,
2013-07-04 02:40:00,67.9,67.5,29.57,SW,225,0.0,0.0,98,0.00,,,0.00,Rainwise IP-100,2013-07-04 06:40:00,
2013-07-04 02:45:00,67.9,67.5,29.57,SW,225,0.0,0.0,98,0.00,,,0.00,Rainwise IP-100,2013-07-04 06:45:00,
2013-07-04 02:50:00,67.9,67.5,29.57,SW,225,0.0,0.0,98,0.00,,,0.00,Rainwise IP-100,2013-07-04 06:50:00,
2013-07-04 02:55:00,67.6,67.0,29.57,SW,225,0.0,0.0,98,0.00,,,0.00,Rainwise IP-100,2013-07-04 06:55:00,
2013-07-04 03:00:00,67.4,67.0,29.57,SW,225,0.0,2.0,99,0.00,,,0.00,Rainwise IP-100,2013-07-04 07:00:00,
2013-07-04 03:05:00,67.4,67.0,29.57,SW,225,0.0,2.0,99,0.00,,,0.00,Rainwise IP-100,2013-07-04 07:05:00,
2013-07-04 03:11:00,67.3,67.0,29.57,SW,225,0.0,1.0,99,0.00,,,0.00,Rainwise IP-100,2013-07-04 07:11:00,
2013-07-04 03:16:00,67.1,66.7,29.57,SW,225,0.0,0.0,99,0.00,,,0.00,Rainwise IP-100,2013-07-04 07:16:00,
2013-07-04 03:21:00,67.0,67.0,29.57,SW,225,0.0,0.0,100,0.00,,,0.00,Rainwise IP-100,2013-07-04 07:21:00,
2013-07-04 03:26:00,66.9,67.0,29.57,SW,225,0.0,0.0,100,0.00,,,0.00,Rainwise IP-100,2013-07-04 07:26:00,
2013-07-04 03:30:00,66.9,66.7,29.57,SW,225,0.0,0.0,99,0.00,,,0.00,Rainwise IP-100,2013-07-04 07:30:00,
2013-07-04 03:35:00,66.7,66.3,29.56,SW,225,0.0,0.0,99,0.00,,,0.00,Rainwise IP-100,2013-07-04 07:35:00,
2013-07-04 03:41:00,66.7,66.7,29.56,SW,225,0.0,0.0,100,0.00,,,0.00,Rainwise IP-100,2013-07-04 07:41:00,
2013-07-04 03:46:00,66.6,66.7,29.56,SW,225,0.0,0.0,100,0.00,,,0.00,Rainwise IP-100,2013-07-04 07:46:00,
2013-07-04 03:51:00,66.5,66.7,29.56,SW,225,0.0,0.0,100,0.00,,,0.00,Rainwise IP-100,2013-07-04 07:51:00,
2013-07-04 03:56:00,66.6,66.7,29.56,SW,225,0.0,3.0,100,0.00,,,0.00,Rainwise IP-100,2013-07-04 07:56:00,
2013-07-04 04:01:00,66.7,66.7,29.56,SW,225,0.0,3.0,100,0.00,,,0.00,Rainwise IP-100,2013-07-04 08:01:00,
2013-07-04 04:06:00,66.8,66.7,29.56,SW,225,0.0,3.0,100,0.00,,,0.00,Rainwise IP-100,2013-07-04 08:06:00,
2013-07-04 04:11:00,66.6,66.7,29.56,SW,225,0.0,1.0,100,0.00,,,0.00,Rainwise IP-100,2013-07-04 08:11:00,
2013-07-04 04:16:00,66.4,66.3,29.57,SW,225,0.0,0.0,100,0.00,,,0.00,Rainwise IP-100,2013-07-04 08:16:00,
2013-07-04 04:22:00,66.6,66.7,29.57,SW,225,2.0,2.0,100,0.00,,,0.00,Rainwise IP-100,2013-07-04 08:22:00,
2013-07-04 04:27:00,66.6,66.7,29.57,SW,225,0.0,4.0,100,0.00,,,0.00,Rainwise IP-100,2013-07-04 08:27:00,
2013-07-04 04:32:00,66.6,66.7,29.57,WSW,247,2.0,5.0,100,0.00,,,0.00,Rainwise IP-100,2013-07-04 08:32:00,
2013-07-04 04:37:00,66.6,66.7,29.57,WSW,247,0.0,3.0,100,0.00,,,0.00,Rainwise IP-100,2013-07-04 08:37:00,
2013-07-04 04:42:00,66.2,66.3,29.57,WSW,247,0.0,0.0,100,0.00,,,0.00,Rainwise IP-100,2013-07-04 08:42:00,
2013-07-04 04:47:00,65.9,66.0,29.57,WSW,247,0.0,0.0,100,0.00,,,0.00,Rainwise IP-100,2013-07-04 08:47:00,
2013-07-04 04:52:00,65.8,66.0,29.57,WSW,247,2.0,2.0,100,0.00,,,0.00,Rainwise IP-100,2013-07-04 08:52:00,
2013-07-04 04:58:00,65.9,66.0,29.57,WSW,247,0.0,2.0,100,0.00,,,0.00,Rainwise IP-100,2013-07-04 08:58:00,
2013-07-04 05:03:00,66.1,66.0,29.58,WSW,247,0.0,0.0,100,0.00,,,0.00,Rainwise IP-100,2013-07-04 09:03:00,
2013-07-04 05:08:00,66.3,66.3,29.58,WSW,247,0.0,0.0,100,0.00,,,0.00,Rainwise IP-100,2013-07-04 09:08:00,
2013-07-04 05:13:00,66.4,66.3,29.58,WSW,247,0.0,0.0,100,0.00,,,0.00,Rainwise IP-100,2013-07-04 09:13:00,
2013-07-04 05:18:00,66.6,66.7,29.58,NE,45,0.0,3.0,100,0.00,,,0.00,Rainwise IP-100,2013-07-04 09:18:00,
2013-07-04 05:23:00,67.1,67.0,29.58,NE,45,0.0,4.0,100,0.00,,,0.00,Rainwise IP-100,2013-07-04 09:23:00,
2013-07-04 05:28:00,67.1,67.0,29.58,NE,45,0.0,3.0,100,0.00,,,0.00,Rainwise IP-100,2013-07-04 09:28:00,
2013-07-04 05:33:00,67.1,67.0,29.58,NE,45,0.0,0.0,100,0.00,,,0.00,Rainwise IP-100,2013-07-04 09:33:00,
2013-07-04 05:39:00,67.1,67.0,29.58,NE,45,0.0,0.0,100,0.00,,,0.00,Rainwise IP-100,2013-07-04 09:39:00,
2013-07-04 05:44:00,67.0,67.0,29.58,NE,45,0.0,0.0,100,0.00,,,0.00,Rainwise IP-100,2013-07-04 09:44:00,
2013-07-04 05:49:00,67.0,67.0,29.58,NE,45,0.0,0.0,100,0.00,,,0.00,Rainwise IP-100,2013-07-04 09:49:00,
2013-07-04 05:54:00,67.4,67.5,29.58,NE,45,0.0,0.0,100,0.00,,,0.00,Rainwise IP-100,2013-07-04 09:54:00,
2013-07-04 05:59:00,67.8,68.0,29.58,NE,45,0.0,0.0,100,0.00,,,0.00,Rainwise IP-100,2013-07-04 09:59:00,
2013-07-04 06:04:00,68.3,68.5,29.58,NE,45,1.0,1.0,100,0.00,,,0.00,Rainwise IP-100,2013-07-04 10:04:00,
2013-07-04 06:09:00,69.0,69.0,29.58,NE,45,0.0,3.0,100,0.00,,,0.00,Rainwise IP-100,2013-07-04 10:09:00,
2013-07-04 06:15:00,69.3,69.3,29.59,NE,45,0.0,0.0,100,0.00,,,0.00,Rainwise IP-100,2013-07-04 10:15:00,
2013-07-04 06:20:00,69.5,69.7,29.59,SSW,202,2.0,3.0,100,0.00,,,0.00,Rainwise IP-100,2013-07-04 10:20:00,
2013-07-04 06:25:00,69.7,69.7,29.59,SSW,202,0.0,2.0,100,0.00,,,0.00,Rainwise IP-100,2013-07-04 10:25:00,
2013-07-04 06:30:00,69.8,69.7,29.59,WSW,247,3.0,4.0,100,0.00,,,0.00,Rainwise IP-100,2013-07-04 10:30:00,
2013-07-04 06:35:00,69.8,69.7,29.59,SW,225,0.0,5.0,100,0.00,,,0.00,Rainwise IP-100,2013-07-04 10:35:00,
2013-07-04 06:40:00,69.9,70.0,29.59,SW,225,2.0,3.0,100,0.00,,,0.00,Rainwise IP-100,2013-07-04 10:40:00,
2013-07-04 06:45:00,70.0,70.0,29.59,SW,225,1.0,3.0,100,0.00,,,0.00,Rainwise IP-100,2013-07-04 10:45:00,
2013-07-04 06:50:00,70.1,70.0,29.59,SE,135,0.0,3.0,100,0.00,,,0.00,Rainwise IP-100,2013-07-04 10:50:00,
2013-07-04 06:56:00,70.2,70.0,29.59,SSW,202,0.0,1.0,100,0.00,,,0.00,Rainwise IP-100,2013-07-04 10:56:00,
2013-07-04 07:01:00,70.2,70.0,29.60,SW,225,0.0,5.0,100,0.00,,,0.00,Rainwise IP-100,2013-07-04 11:01:00,
2013-07-04 07:06:00,70.2,70.0,29.60,SW,225,0.0,4.0,100,0.00,,,0.00,Rainwise IP-100,2013-07-04 11:06:00,
2013-07-04 07:11:00,70.4,70.5,29.60,WSW,247,1.0,5.0,100,0.00,,,0.00,Rainwise IP-100,2013-07-04 11:11:00,
2013-07-04 07:16:00,70.4,70.5,29.60,WSW,247,1.0,7.0,100,0.00,,,0.00,Rainwise IP-100,2013-07-04 11:16:00,
2013-07-04 07:21:00,70.5,70.5,29.60,ENE,67,0.0,4.0,100,0.00,,,0.00,Rainwise IP-100,2013-07-04 11:21:00,
2013-07-04 07:26:00,70.8,71.0,29.60,ESE,112,0.0,3.0,100,0.00,,,0.00,Rainwise IP-100,2013-07-04 11:26:00,
2013-07-04 07:32:00,71.4,71.3,29.60,ESE,112,0.0,1.0,100,0.00,,,0.00,Rainwise IP-100,2013-07-04 11:32:00,
2013-07-04 07:37:00,71.5,71.7,29.61,SE,135,3.0,4.0,100,0.00,,,0.00,Rainwise IP-100,2013-07-04 11:37:00,
2013-07-04 07:42:00,71.6,71.3,29.61,SE,135,1.0,5.0,99,0.00,,,0.00,Rainwise IP-100,2013-07-04 11:42:00,
2013-07-04 07:47:00,72.7,72.7,29.61,SE,135,1.0,3.0,100,0.00,,,0.00,Rainwise IP-100,2013-07-04 11:47:00,
2013-07-04 07:52:00,73.4,73.3,29.62,East,90,0.0,3.0,100,0.00,,,0.00,Rainwise IP-100,2013-07-04 11:52:00,
2013-07-04 07:57:00,73.4,72.7,29.62,ENE,67,3.0,4.0,98,0.00,,,0.00,Rainwise IP-100,2013-07-04 11:57:00,
2013-07-04 08:02:00,73.6,72.7,29.61,SW,225,1.0,5.0,97,0.00,,,0.00,Rainwise IP-100,2013-07-04 12:02:00,
2013-07-04 08:07:00,73.7,72.3,29.62,SW,225,0.0,5.0,95,0.00,,,0.00,Rainwise IP-100,2013-07-04 12:07:00,
2013-07-04 08:13:00,74.3,73.3,29.62,South,180,0.0,6.0,97,0.00,,,0.00,Rainwise IP-100,2013-07-04 12:13:00,
2013-07-04 08:18:00,75.5,73.7,29.62,East,90,3.0,6.0,94,0.00,,,0.00,Rainwise IP-100,2013-07-04 12:18:00,
2013-07-04 08:23:00,76.4,74.7,29.62,East,90,5.0,5.0,95,0.00,,,0.00,Rainwise IP-100,2013-07-04 12:23:00,
2013-07-04 08:28:00,76.9,74.3,29.62,NE,45,1.0,6.0,92,0.00,,,0.00,Rainwise IP-100,2013-07-04 12:28:00,
2013-07-04 08:33:00,77.6,75.0,29.62,NE,45,1.0,5.0,92,0.00,,,0.00,Rainwise IP-100,2013-07-04 12:33:00,
2013-07-04 08:38:00,78.3,76.0,29.63,ESE,112,0.0,6.0,92,0.00,,,0.00,Rainwise IP-100,2013-07-04 12:38:00,
2013-07-04 08:43:00,78.1,73.0,29.63,WSW,247,3.0,6.0,85,0.00,,,0.00,Rainwise IP-100,2013-07-04 12:43:00,
2013-07-04 08:49:00,78.3,74.3,29.63,ESE,112,0.0,6.0,88,0.00,,,0.00,Rainwise IP-100,2013-07-04 12:49:00,
2013-07-04 08:54:00,79.3,75.5,29.63,East,90,0.0,4.0,88,0.00,,,0.00,Rainwise IP-100,2013-07-04 12:54:00,
2013-07-04 08:59:00,79.8,74.0,29.64,SSE,157,1.0,6.0,83,0.00,,,0.00,Rainwise IP-100,2013-07-04 12:59:00,
2013-07-04 09:04:00,79.7,74.0,29.63,ENE,67,1.0,6.0,83,0.00,,,0.00,Rainwise IP-100,2013-07-04 13:04:00,
2013-07-04 09:09:00,80.5,75.5,29.63,SE,135,0.0,3.0,85,0.00,,,0.00,Rainwise IP-100,2013-07-04 13:09:00,
2013-07-04 09:14:00,81.2,76.0,29.63,South,180,0.0,4.0,83,0.00,,,0.00,Rainwise IP-100,2013-07-04 13:14:00,
2013-07-04 09:19:00,81.4,73.7,29.63,SW,225,5.0,6.0,78,0.00,,,0.00,Rainwise IP-100,2013-07-04 13:19:00,
2013-07-04 09:24:00,81.2,75.5,29.64,WSW,247,4.0,6.0,82,0.00,,,0.00,Rainwise IP-100,2013-07-04 13:24:00,
2013-07-04 09:30:00,81.0,75.0,29.64,South,180,4.0,7.0,82,0.00,,,0.00,Rainwise IP-100,2013-07-04 13:30:00,
2013-07-04 09:35:00,81.4,74.0,29.64,SW,225,0.0,6.0,79,0.00,,,0.00,Rainwise IP-100,2013-07-04 13:35:00,
2013-07-04 09:40:00,82.0,74.0,29.64,North,360,4.0,6.0,77,0.00,,,0.00,Rainwise IP-100,2013-07-04 13:40:00,
2013-07-04 09:45:00,82.2,74.0,29.64,South,180,0.0,7.0,77,0.00,,,0.00,Rainwise IP-100,2013-07-04 13:45:00,
2013-07-04 09:50:00,82.7,74.3,29.64,ENE,67,4.0,7.0,76,0.00,,,0.00,Rainwise IP-100,2013-07-04 13:50:00,
2013-07-04 09:55:00,82.6,74.3,29.64,SSE,157,4.0,7.0,77,0.00,,,0.00,Rainwise IP-100,2013-07-04 13:55:00,
2013-07-04 10:00:00,82.2,74.7,29.64,ESE,112,5.0,7.0,78,0.00,,,0.00,Rainwise IP-100,2013-07-04 14:00:00,
2013-07-04 10:06:00,82.5,74.0,29.64,SE,135,0.0,8.0,76,0.00,,,0.00,Rainwise IP-100,2013-07-04 14:06:00,
2013-07-04 10:11:00,82.9,74.7,29.64,ENE,67,2.0,7.0,76,0.00,,,0.00,Rainwise IP-100,2013-07-04 14:11:00,
2013-07-04 10:16:00,83.1,74.7,29.64,ENE,67,0.0,9.0,76,0.00,,,0.00,Rainwise IP-100,2013-07-04 14:16:00,
2013-07-04 10:21:00,83.3,74.7,29.63,ENE,67,4.0,6.0,76,0.00,,,0.00,Rainwise IP-100,2013-07-04 14:21:00,
2013-07-04 10:26:00,83.6,75.5,29.63,SSE,157,0.0,7.0,77,0.00,,,0.00,Rainwise IP-100,2013-07-04 14:26:00,
2013-07-04 10:31:00,84.8,75.5,29.63,SSE,157,1.0,6.0,74,0.00,,,0.00,Rainwise IP-100,2013-07-04 14:31:00,
2013-07-04 10:36:00,85.4,76.0,29.63,SSW,202,5.0,7.0,73,0.00,,,0.00,Rainwise IP-100,2013-07-04 14:36:00,
2013-07-04 10:41:00,85.7,75.5,29.63,SSE,157,2.0,8.0,72,0.00,,,0.00,Rainwise IP-100,2013-07-04 14:41:00,
2013-07-04 10:47:00,86.2,75.5,29.63,ENE,67,1.0,8.0,71,0.00,,,0.00,Rainwise IP-100,2013-07-04 14:47:00,
2013-07-04 10:52:00,86.7,76.0,29.64,SSE,157,3.0,7.0,70,0.00,,,0.00,Rainwise IP-100,2013-07-04 14:52:00,
2013-07-04 10:57:00,86.3,75.0,29.63,SE,135,3.0,6.0,70,0.00,,,0.00,Rainwise IP-100,2013-07-04 14:57:00,
2013-07-04 11:02:00,86.1,74.3,29.63,SE,135,3.0,6.0,69,0.00,,,0.00,Rainwise IP-100,2013-07-04 15:02:00,
2013-07-04 11:07:00,86.8,76.5,29.63,SSW,202,2.0,8.0,72,0.00,,,0.00,Rainwise IP-100,2013-07-04 15:07:00,
2013-07-04 11:12:00,87.7,77.0,29.63,WSW,247,2.0,6.0,71,0.00,,,0.00,Rainwise IP-100,2013-07-04 15:12:00,
2013-07-04 11:17:00,87.9,77.7,29.63,NNW,337,0.0,7.0,72,0.00,,,0.00,Rainwise IP-100,2013-07-04 15:17:00,
2013-07-04 11:23:00,87.5,74.3,29.63,SW,225,2.0,7.0,65,0.00,,,0.00,Rainwise IP-100,2013-07-04 15:23:00,
2013-07-04 11:28:00,87.5,73.3,29.63,SE,135,0.0,7.0,63,0.00,,,0.00,Rainwise IP-100,2013-07-04 15:28:00,
2013-07-04 11:33:00,87.2,74.3,29.63,SE,135,0.0,9.0,66,0.00,,,0.00,Rainwise IP-100,2013-07-04 15:33:00,
2013-07-04 11:38:00,87.3,74.0,29.63,SW,225,0.0,10.0,65,0.00,,,0.00,Rainwise IP-100,2013-07-04 15:38:00,
2013-07-04 11:43:00,87.4,73.7,29.63,SW,225,0.0,8.0,64,0.00,,,0.00,Rainwise IP-100,2013-07-04 15:43:00,
2013-07-04 11:48:00,85.9,72.7,29.63,SW,225,4.0,10.0,65,0.00,,,0.00,Rainwise IP-100,2013-07-04 15:48:00,
2013-07-04 11:53:00,85.9,74.0,29.63,NW,315,0.0,8.0,68,0.00,,,0.00,Rainwise IP-100,2013-07-04 15:53:00,
2013-07-04 11:58:00,86.5,74.0,29.63,SW,225,1.0,6.0,67,0.00,,,0.00,Rainwise IP-100,2013-07-04 15:58:00,
2013-07-04 12:04:00,86.0,75.0,29.62,SE,135,3.0,8.0,70,0.00,,,0.00,Rainwise IP-100,2013-07-04 16:04:00,
2013-07-04 12:09:00,86.5,75.5,29.62,SE,135,2.0,9.0,70,0.00,,,0.00,Rainwise IP-100,2013-07-04 16:09:00,
2013-07-04 12:14:00,87.1,75.0,29.62,East,90,1.0,7.0,68,0.00,,,0.00,Rainwise IP-100,2013-07-04 16:14:00,
2013-07-04 12:19:00,87.8,76.0,29.62,ENE,67,3.0,7.0,68,0.00,,,0.00,Rainwise IP-100,2013-07-04 16:19:00,
2013-07-04 12:24:00,88.4,76.5,29.61,SSW,202,4.0,7.0,68,0.00,,,0.00,Rainwise IP-100,2013-07-04 16:24:00,
2013-07-04 12:29:00,88.3,76.5,29.61,SSE,157,0.0,7.0,68,0.00,,,0.00,Rainwise IP-100,2013-07-04 16:29:00,
2013-07-04 12:34:00,88.9,76.3,29.61,East,90,1.0,6.0,66,0.00,,,0.00,Rainwise IP-100,2013-07-04 16:34:00,
2013-07-04 12:40:00,89.3,75.5,29.61,SSE,157,3.0,8.0,64,0.00,,,0.00,Rainwise IP-100,2013-07-04 16:40:00,
2013-07-04 12:45:00,88.5,74.3,29.61,ESE,112,0.0,9.0,63,0.00,,,0.00,Rainwise IP-100,2013-07-04 16:45:00,
2013-07-04 12:50:00,88.4,73.7,29.60,SSE,157,3.0,9.0,62,0.00,,,0.00,Rainwise IP-100,2013-07-04 16:50:00,
2013-07-04 12:55:00,88.3,73.0,29.60,SSE,157,0.0,9.0,61,0.00,,,0.00,Rainwise IP-100,2013-07-04 16:55:00,
2013-07-04 13:00:00,89.0,72.3,29.60,WNW,292,2.0,4.0,58,0.00,,,0.00,Rainwise IP-100,2013-07-04 17:00:00,
2013-07-04 13:05:00,89.6,73.7,29.60,SSW,202,2.0,6.0,60,0.00,,,0.00,Rainwise IP-100,2013-07-04 17:05:00,
2013-07-04 13:10:00,89.7,74.7,29.60,WSW,247,0.0,4.0,62,0.00,,,0.00,Rainwise IP-100,2013-07-04 17:10:00,
2013-07-04 13:15:00,89.7,76.5,29.60,ESE,112,1.0,5.0,65,0.00,,,0.00,Rainwise IP-100,2013-07-04 17:15:00,
2013-07-04 13:21:00,88.3,73.0,29.59,ESE,112,6.0,6.0,61,0.00,,,0.00,Rainwise IP-100,2013-07-04 17:21:00,
2013-07-04 13:26:00,87.4,74.0,29.59,SSW,202,0.0,7.0,65,0.00,,,0.00,Rainwise IP-100,2013-07-04 17:26:00,
2013-07-04 13:31:00,87.3,75.0,29.59,West,270,1.0,2.0,67,0.00,,,0.00,Rainwise IP-100,2013-07-04 17:31:00,
2013-07-04 13:36:00,87.7,76.5,29.59,South,180,0.0,6.0,69,0.00,,,0.00,Rainwise IP-100,2013-07-04 17:36:00,
2013-07-04 13:41:00,88.6,75.0,29.58,WSW,247,2.0,7.0,65,0.00,,,0.00,Rainwise IP-100,2013-07-04 17:41:00,
2013-07-04 13:46:00,88.7,73.7,29.58,SE,135,3.0,8.0,61,0.00,,,0.00,Rainwise IP-100,2013-07-04 17:46:00,
2013-07-04 13:51:00,88.7,74.3,29.58,ESE,112,3.0,6.0,63,0.00,,,0.00,Rainwise IP-100,2013-07-04 17:51:00,
2013-07-04 13:57:00,88.9,74.7,29.58,SW,225,0.0,7.0,63,0.00,,,0.00,Rainwise IP-100,2013-07-04 17:57:00,
2013-07-04 14:02:00,88.4,75.0,29.58,South,180,0.0,11.0,65,0.00,,,0.00,Rainwise IP-100,2013-07-04 18:02:00,
2013-07-04 14:07:00,88.6,74.7,29.58,South,180,6.0,6.0,64,0.00,,,0.00,Rainwise IP-100,2013-07-04 18:07:00,
2013-07-04 14:12:00,88.6,73.7,29.57,ESE,112,3.0,6.0,62,0.00,,,0.00,Rainwise IP-100,2013-07-04 18:12:00,
2013-07-04 14:17:00,89.4,74.7,29.57,East,90,1.0,5.0,62,0.00,,,0.00,Rainwise IP-100,2013-07-04 18:17:00,
2013-07-04 14:22:00,90.1,74.3,29.57,SE,135,0.0,7.0,60,0.00,,,0.00,Rainwise IP-100,2013-07-04 18:22:00,
2013-07-04 14:27:00,90.2,76.0,29.57,SSW,202,1.0,6.0,63,0.00,,,0.00,Rainwise IP-100,2013-07-04 18:27:00,
2013-07-04 14:33:00,90.3,75.0,29.57,SSE,157,3.0,6.0,61,0.00,,,0.00,Rainwise IP-100,2013-07-04 18:33:00,
2013-07-04 14:38:00,89.6,76.3,29.57,East,90,6.0,6.0,65,0.00,,,0.00,Rainwise IP-100,2013-07-04 18:38:00,
2013-07-04 14:43:00,89.0,73.7,29.57,SE,135,3.0,11.0,61,0.00,,,0.00,Rainwise IP-100,2013-07-04 18:43:00,
2013-07-04 14:48:00,87.7,73.7,29.57,SW,225,0.0,8.0,63,0.00,,,0.00,Rainwise IP-100,2013-07-04 18:48:00,
2013-07-04 14:53:00,87.4,74.0,29.57,NE,45,1.0,6.0,65,0.00,,,0.00,Rainwise IP-100,2013-07-04 18:53:00,
2013-07-04 14:58:00,87.5,74.7,29.56,SW,225,2.0,7.0,66,0.00,,,0.00,Rainwise IP-100,2013-07-04 18:58:00,
2013-07-04 15:03:00,88.3,74.0,29.56,SE,135,2.0,10.0,63,0.00,,,0.00,Rainwise IP-100,2013-07-04 19:03:00,
2013-07-04 15:08:00,89.3,76.0,29.56,SE,135,2.0,7.0,65,0.00,,,0.00,Rainwise IP-100,2013-07-04 19:08:00,
2013-07-04 15:14:00,88.9,74.7,29.56,South,180,3.0,9.0,63,0.00,,,0.00,Rainwise IP-100,2013-07-04 19:14:00,
2013-07-04 15:19:00,89.0,74.7,29.56,SE,135,3.0,8.0,63,0.00,,,0.00,Rainwise IP-100,2013-07-04 19:19:00,
2013-07-04 15:24:00,89.6,74.7,29.56,South,180,0.0,8.0,62,0.00,,,0.00,Rainwise IP-100,2013-07-04 19:24:00,
2013-07-04 15:29:00,89.3,75.5,29.56,NNE,22,0.0,4.0,64,0.00,,,0.00,Rainwise IP-100,2013-07-04 19:29:00,
2013-07-04 15:34:00,88.3,74.3,29.56,SSW,202,0.0,10.0,64,0.00,,,0.00,Rainwise IP-100,2013-07-04 19:34:00,
2013-07-04 15:39:00,87.8,73.7,29.56,WSW,247,4.0,5.0,63,0.00,,,0.00,Rainwise IP-100,2013-07-04 19:39:00,
2013-07-04 15:44:00,88.3,76.5,29.56,WSW,247,5.0,6.0,68,0.00,,,0.00,Rainwise IP-100,2013-07-04 19:44:00,
2013-07-04 15:50:00,89.3,71.7,29.56,WSW,247,7.0,12.0,56,0.00,,,0.00,Rainwise IP-100,2013-07-04 19:50:00,
2013-07-04 15:55:00,89.6,69.7,29.56,West,270,4.0,12.0,52,0.00,,,0.00,Rainwise IP-100,2013-07-04 19:55:00,
2013-07-04 16:00:00,89.2,69.0,29.56,WSW,247,10.0,13.0,51,0.00,,,0.00,Rainwise IP-100,2013-07-04 20:00:00,
2013-07-04 16:05:00,88.7,69.0,29.55,West,270,8.0,15.0,52,0.00,,,0.00,Rainwise IP-100,2013-07-04 20:05:00,
2013-07-04 16:10:00,88.6,68.0,29.55,West,270,5.0,13.0,51,0.00,,,0.00,Rainwise IP-100,2013-07-04 20:10:00,
2013-07-04 16:15:00,88.9,70.5,29.55,WSW,247,6.0,9.0,54,0.00,,,0.00,Rainwise IP-100,2013-07-04 20:15:00,
2013-07-04 16:20:00,88.6,69.0,29.55,WSW,247,9.0,12.0,52,0.00,,,0.00,Rainwise IP-100,2013-07-04 20:20:00,
2013-07-04 16:25:00,88.9,68.5,29.55,SW,225,7.0,15.0,51,0.00,,,0.00,Rainwise IP-100,2013-07-04 20:25:00,
2013-07-04 16:31:00,88.6,67.5,29.55,WSW,247,3.0,11.0,50,0.00,,,0.00,Rainwise IP-100,2013-07-04 20:31:00,
2013-07-04 16:36:00,88.6,69.3,29.55,West,270,5.0,15.0,53,0.00,,,0.00,Rainwise IP-100,2013-07-04 20:36:00,
2013-07-04 16:41:00,88.8,69.0,29.55,WSW,247,14.0,14.0,52,0.00,,,0.00,Rainwise IP-100,2013-07-04 20:41:00,
2013-07-04 16:46:00,88.7,68.0,29.55,SSW,202,1.0,16.0,50,0.00,,,0.00,Rainwise IP-100,2013-07-04 20:46:00,
2013-07-04 16:51:00,88.7,68.5,29.55,WSW,247,9.0,13.0,51,0.00,,,0.00,Rainwise IP-100,2013-07-04 20:51:00,
2013-07-04 16:56:00,88.7,69.0,29.55,SW,225,9.0,14.0,52,0.00,,,0.00,Rainwise IP-100,2013-07-04 20:56:00,
2013-07-04 17:01:00,88.3,68.0,29.55,WSW,247,7.0,12.0,51,0.00,,,0.00,Rainwise IP-100,2013-07-04 21:01:00,
2013-07-04 17:07:00,88.5,69.0,29.55,WSW,247,8.0,10.0,52,0.00,,,0.00,Rainwise IP-100,2013-07-04 21:07:00,
2013-07-04 17:12:00,88.8,71.7,29.55,West,270,8.0,9.0,57,0.00,,,0.00,Rainwise IP-100,2013-07-04 21:12:00,
2013-07-04 17:17:00,88.8,71.3,29.55,SE,135,1.0,13.0,56,0.00,,,0.00,Rainwise IP-100,2013-07-04 21:17:00,
2013-07-04 17:22:00,89.2,71.0,29.55,ENE,67,0.0,10.0,55,0.00,,,0.00,Rainwise IP-100,2013-07-04 21:22:00,
2013-07-04 17:27:00,89.4,71.0,29.54,NW,315,0.0,9.0,54,0.00,,,0.00,Rainwise IP-100,2013-07-04 21:27:00,
2013-07-04 17:32:00,89.6,69.7,29.55,East,90,1.0,7.0,52,0.00,,,0.00,Rainwise IP-100,2013-07-04 21:32:00,
2013-07-04 17:37:00,89.5,71.0,29.54,WSW,247,4.0,6.0,54,0.00,,,0.00,Rainwise IP-100,2013-07-04 21:37:00,
2013-07-04 17:42:00,88.3,71.7,29.54,WSW,247,6.0,8.0,58,0.00,,,0.00,Rainwise IP-100,2013-07-04 21:42:00,
2013-07-04 17:48:00,87.6,70.0,29.54,SW,225,6.0,11.0,56,0.00,,,0.00,Rainwise IP-100,2013-07-04 21:48:00,
2013-07-04 17:53:00,87.6,70.5,29.54,WSW,247,0.0,6.0,57,0.00,,,0.00,Rainwise IP-100,2013-07-04 21:53:00,
2013-07-04 17:58:00,87.4,72.0,29.54,SSE,157,3.0,7.0,60,0.00,,,0.00,Rainwise IP-100,2013-07-04 21:58:00,
2013-07-04 18:03:00,86.8,71.7,29.54,WSW,247,0.0,8.0,61,0.00,,,0.00,Rainwise IP-100,2013-07-04 22:03:00,
2013-07-04 18:08:00,86.2,71.0,29.54,WSW,247,0.0,6.0,60,0.00,,,0.00,Rainwise IP-100,2013-07-04 22:08:00,
2013-07-04 18:13:00,86.2,73.0,29.54,WSW,247,3.0,5.0,65,0.00,,,0.00,Rainwise IP-100,2013-07-04 22:13:00,
2013-07-04 18:18:00,86.9,73.7,29.53,South,180,0.0,4.0,65,0.00,,,0.00,Rainwise IP-100,2013-07-04 22:18:00,
2013-07-04 18:24:00,87.8,73.7,29.54,WSW,247,0.0,6.0,63,0.00,,,0.00,Rainwise IP-100,2013-07-04 22:24:00,
2013-07-04 18:29:00,88.4,71.7,29.54,South,180,2.0,9.0,57,0.00,,,0.00,Rainwise IP-100,2013-07-04 22:29:00,
2013-07-04 18:34:00,88.3,71.7,29.54,NE,45,0.0,6.0,58,0.00,,,0.00,Rainwise IP-100,2013-07-04 22:34:00,
2013-07-04 18:39:00,88.3,73.0,29.54,WSW,247,0.0,6.0,61,0.00,,,0.00,Rainwise IP-100,2013-07-04 22:39:00,
2013-07-04 18:44:00,88.3,72.3,29.54,West,270,2.0,4.0,59,0.00,,,0.00,Rainwise IP-100,2013-07-04 22:44:00,
2013-07-04 18:49:00,88.1,73.3,29.54,WSW,247,3.0,6.0,62,0.00,,,0.00,Rainwise IP-100,2013-07-04 22:49:00,
2013-07-04 18:54:00,87.9,74.7,29.54,SW,225,0.0,6.0,65,0.00,,,0.00,Rainwise IP-100,2013-07-04 22:54:00,
2013-07-04 18:59:00,87.6,73.3,29.54,SW,225,0.0,8.0,63,0.00,,,0.00,Rainwise IP-100,2013-07-04 22:59:00,
2013-07-04 19:05:00,87.4,74.3,29.55,SE,135,2.0,6.0,66,0.00,,,0.00,Rainwise IP-100,2013-07-04 23:05:00,
2013-07-04 19:10:00,87.0,73.7,29.55,SE,135,0.0,6.0,65,0.00,,,0.00,Rainwise IP-100,2013-07-04 23:10:00,
2013-07-04 19:15:00,86.9,73.7,29.55,SE,135,2.0,3.0,65,0.00,,,0.00,Rainwise IP-100,2013-07-04 23:15:00,
2013-07-04 19:20:00,86.8,73.3,29.55,SE,135,0.0,3.0,65,0.00,,,0.00,Rainwise IP-100,2013-07-04 23:20:00,
2013-07-04 19:25:00,86.7,73.3,29.54,SE,135,0.0,2.0,65,0.00,,,0.00,Rainwise IP-100,2013-07-04 23:25:00,
2013-07-04 19:30:00,86.5,74.0,29.54,SW,225,1.0,4.0,67,0.00,,,0.00,Rainwise IP-100,2013-07-04 23:30:00,
2013-07-04 19:35:00,86.2,75.0,29.55,SW,225,0.0,2.0,70,0.00,,,0.00,Rainwise IP-100,2013-07-04 23:35:00,
2013-07-04 19:40:00,85.6,74.7,29.55,SW,225,0.0,2.0,71,0.00,,,0.00,Rainwise IP-100,2013-07-04 23:40:00,
2013-07-04 19:45:00,84.9,74.7,29.54,SW,225,0.0,1.0,72,0.00,,,0.00,Rainwise IP-100,2013-07-04 23:45:00,
2013-07-04 19:51:00,84.2,74.3,29.55,SW,225,0.0,1.0,72,0.00,,,0.00,Rainwise IP-100,2013-07-04 23:51:00,
2013-07-04 19:56:00,83.1,73.0,29.55,SW,225,0.0,0.0,72,0.00,,,0.00,Rainwise IP-100,2013-07-04 23:56:00,
2013-07-04 20:01:00,81.5,72.7,29.55,SW,225,0.0,0.0,74,0.00,,,0.00,Rainwise IP-100,2013-07-05 00:01:00,
2013-07-04 20:06:00,80.3,72.3,29.55,SW,225,0.0,1.0,77,0.00,,,0.00,Rainwise IP-100,2013-07-05 00:06:00,
2013-07-04 20:11:00,79.3,72.3,29.55,SW,225,0.0,3.0,79,0.00,,,0.00,Rainwise IP-100,2013-07-05 00:11:00,
2013-07-04 20:16:00,78.4,72.7,29.54,SW,225,2.0,2.0,83,0.00,,,0.00,Rainwise IP-100,2013-07-05 00:16:00,
2013-07-04 20:21:00,77.5,73.0,29.54,SW,225,0.0,3.0,85,0.00,,,0.00,Rainwise IP-100,2013-07-05 00:21:00,
2013-07-04 20:27:00,76.8,71.3,29.54,SW,225,0.0,1.0,83,0.00,,,0.00,Rainwise IP-100,2013-07-05 00:27:00,
2013-07-04 20:32:00,76.3,72.3,29.54,SW,225,0.0,0.0,88,0.00,,,0.00,Rainwise IP-100,2013-07-05 00:32:00,
2013-07-04 20:37:00,75.7,71.7,29.54,SW,225,0.0,0.0,88,0.00,,,0.00,Rainwise IP-100,2013-07-05 00:37:00,
2013-07-04 20:42:00,75.1,71.3,29.54,SW,225,0.0,0.0,87,0.00,,,0.00,Rainwise IP-100,2013-07-05 00:42:00,
2013-07-04 20:47:00,74.8,71.3,29.54,SW,225,0.0,3.0,88,0.00,,,0.00,Rainwise IP-100,2013-07-05 00:47:00,
2013-07-04 20:52:00,74.7,71.3,29.54,SW,225,0.0,3.0,89,0.00,,,0.00,Rainwise IP-100,2013-07-05 00:52:00,
2013-07-04 20:57:00,74.5,71.3,29.54,SW,225,0.0,0.0,88,0.00,,,0.00,Rainwise IP-100,2013-07-05 00:57:00,
2013-07-04 21:02:00,74.3,71.3,29.54,SW,225,0.0,0.0,89,0.00,,,0.00,Rainwise IP-100,2013-07-05 01:02:00,
2013-07-04 21:08:00,74.1,71.0,29.54,SW,225,0.0,0.0,89,0.00,,,0.00,Rainwise IP-100,2013-07-05 01:08:00,
2013-07-04 21:13:00,73.9,70.5,29.54,SW,225,0.0,0.0,88,0.00,,,0.00,Rainwise IP-100,2013-07-05 01:13:00,
2013-07-04 21:18:00,73.6,71.0,29.54,SW,225,0.0,0.0,90,0.00,,,0.00,Rainwise IP-100,2013-07-05 01:18:00,
2013-07-04 21:23:00,73.6,71.0,29.54,SW,225,2.0,2.0,91,0.00,,,0.00,Rainwise IP-100,2013-07-05 01:23:00,
2013-07-04 21:28:00,73.7,70.5,29.54,SW,225,0.0,3.0,89,0.00,,,0.00,Rainwise IP-100,2013-07-05 01:28:00,
2013-07-04 21:33:00,73.8,71.0,29.54,WSW,247,1.0,3.0,90,0.00,,,0.00,Rainwise IP-100,2013-07-05 01:33:00,
2013-07-04 21:38:00,73.6,70.5,29.54,WSW,247,0.0,2.0,89,0.00,,,0.00,Rainwise IP-100,2013-07-05 01:38:00,
2013-07-04 21:44:00,73.6,71.0,29.55,West,270,0.0,4.0,90,0.00,,,0.00,Rainwise IP-100,2013-07-05 01:44:00,
2013-07-04 21:49:00,73.7,71.0,29.55,West,270,1.0,3.0,91,0.00,,,0.00,Rainwise IP-100,2013-07-05 01:49:00,
2013-07-04 21:54:00,73.9,71.7,29.55,WSW,247,3.0,6.0,92,0.00,,,0.00,Rainwise IP-100,2013-07-05 01:54:00,
2013-07-04 21:59:00,74.1,71.3,29.55,SW,225,2.0,5.0,91,0.00,,,0.00,Rainwise IP-100,2013-07-05 01:59:00,
2013-07-04 22:04:00,74.1,71.3,29.54,WSW,247,3.0,5.0,91,0.00,,,0.00,Rainwise IP-100,2013-07-05 02:04:00,
2013-07-04 22:09:00,73.9,71.3,29.54,WSW,247,0.0,4.0,90,0.00,,,0.00,Rainwise IP-100,2013-07-05 02:09:00,
2013-07-04 22:14:00,73.5,71.0,29.54,WSW,247,0.0,0.0,90,0.00,,,0.00,Rainwise IP-100,2013-07-05 02:14:00,
2013-07-04 22:19:00,73.1,70.0,29.54,WSW,247,0.0,0.0,90,0.00,,,0.00,Rainwise IP-100,2013-07-05 02:19:00,
2013-07-04 22:25:00,72.8,70.0,29.54,WSW,247,0.0,0.0,91,0.00,,,0.00,Rainwise IP-100,2013-07-05 02:25:00,
2013-07-04 22:30:00,72.5,70.5,29.54,WSW,247,0.0,1.0,92,0.00,,,0.00,Rainwise IP-100,2013-07-05 02:30:00,
2013-07-04 22:35:00,72.2,69.7,29.54,WSW,247,1.0,0.0,91,0.00,,,0.00,Rainwise IP-100,2013-07-05 02:35:00,
2013-07-04 22:40:00,72.3,69.7,29.54,WSW,247,0.0,2.0,91,0.00,,,0.00,Rainwise IP-100,2013-07-05 02:40:00,
2013-07-04 22:45:00,72.2,69.7,29.54,WSW,247,0.0,3.0,91,0.00,,,0.00,Rainwise IP-100,2013-07-05 02:45:00,
2013-07-04 22:50:00,71.9,69.7,29.54,WSW,247,0.0,0.0,92,0.00,,,0.00,Rainwise IP-100,2013-07-05 02:50:00,
2013-07-04 22:55:00,71.6,69.3,29.54,WSW,247,0.0,0.0,92,0.00,,,0.00,Rainwise IP-100,2013-07-05 02:55:00,
2013-07-04 23:01:00,71.7,70.0,29.54,WSW,247,2.0,4.0,95,0.00,,,0.00,Rainwise IP-100,2013-07-05 03:01:00,
2013-07-04 23:06:00,71.7,69.7,29.54,WSW,247,0.0,2.0,94,0.00,,,0.00,Rainwise IP-100,2013-07-05 03:06:00,
2013-07-04 23:11:00,71.6,69.7,29.54,WSW,247,0.0,3.0,94,0.00,,,0.00,Rainwise IP-100,2013-07-05 03:11:00,
2013-07-04 23:16:00,71.5,70.0,29.54,WSW,247,0.0,0.0,95,0.00,,,0.00,Rainwise IP-100,2013-07-05 03:16:00,
2013-07-04 23:21:00,71.4,69.3,29.54,WSW,247,0.0,0.0,94,0.00,,,0.00,Rainwise IP-100,2013-07-05 03:21:00,
2013-07-04 23:26:00,71.4,69.7,29.54,WSW,247,0.0,0.0,95,0.00,,,0.00,Rainwise IP-100,2013-07-05 03:26:00,
2013-07-04 23:31:00,71.3,69.7,29.54,WSW,247,0.0,0.0,95,0.00,,,0.00,Rainwise IP-100,2013-07-05 03:31:00,
2013-07-04 23:36:00,71.3,69.3,29.55,WSW,247,0.0,2.0,94,0.00,,,0.00,Rainwise IP-100,2013-07-05 03:36:00,
2013-07-04 23:42:00,71.3,69.7,29.55,WSW,247,0.0,1.0,95,0.00,,,0.00,Rainwise IP-100,2013-07-05 03:42:00,
2013-07-04 23:47:00,71.3,69.7,29.54,WSW,247,0.0,2.0,95,0.00,,,0.00,Rainwise IP-100,2013-07-05 03:47:00,
2013-07-04 23:52:00,71.2,69.7,29.54,WSW,247,0.0,0.0,95,0.00,,,0.00,Rainwise IP-100,2013-07-05 03:52:00,
2013-07-04 23:57:00,70.9,69.3,29.54,WSW,247,1.0,2.0,95,0.00,,,0.00,Rainwise IP-100,2013-07-05 03:57:00,